When you browse on this site, cookies collect data to enhance your experience and personalize the content and advertising you see.
Visit our Privacy Policy to learn more. By continuing to use the site, you agree to this use of cookies and data.
  • In Latvia
  • List of Countries
  • For 7 days
  • Water Temperature
  • Weather Map
  • Weather Widgets
  • user-avatar
    Login

    Hourly Weather Nienowice

    Today, 18 August, Sunday

    Time Temperature Precipitation Wind Pressure Humidity
    00:00 +18°C° 0 mm 1 mps 745 mmHg 74%
    01:00 +16°C° 0 mm 1 mps 745 mmHg 76%
    02:00 +16°C° 0 mm 1 mps 745 mmHg 78%
    03:00 +16°C° 0 mm 1 mps 745 mmHg 79%
    04:00 +15°C° 0 mm 1 mps 745 mmHg 80%
    05:00 +15°C° 0 mm 2 mps 745 mmHg 81%
    06:00 +17°C° 0 mm 2 mps 745 mmHg 79%
    07:00 +18°C° 0 mm 2 mps 745 mmHg 77%
    08:00 +19°C° 0 mm 2 mps 745 mmHg 74%
    09:00 +21°C° 0 mm 2 mps 745 mmHg 69%
    10:00 +24°C° 0 mm 2 mps 745 mmHg 63%
    11:00 +25°C° 0 mm 2 mps 745 mmHg 57%
    12:00 +26°C° 0 mm 3 mps 745 mmHg 55%
    13:00 +27°C° 0 mm 3 mps 745 mmHg 52%
    14:00 +28°C° 0 mm 4 mps 745 mmHg 49%
    15:00 +27°C° 0 mm 3 mps 745 mmHg 53%
    16:00 +27°C° 0 mm 3 mps 744 mmHg 58%
    17:00 +27°C° 0 mm 3 mps 744 mmHg 62%
    18:00 +25°C° 0 mm 3 mps 744 mmHg 66%
    19:00 +24°C° 0 mm 3 mps 745 mmHg 70%
    20:00 +21°C° 0 mm 3 mps 745 mmHg 75%
    21:00 +21°C° 0 mm 3 mps 745 mmHg 74%
    22:00 +20°C° 0 mm 3 mps 745 mmHg 73%
    23:00 +20°C° 0 mm 3 mps 745 mmHg 72%

    Tomorrow, 19 August, Monday

    Time Temperature Precipitation Wind Pressure Humidity
    00:00 +19°C° 0 mm 3 mps 745 mmHg 71%
    01:00 +19°C° 0 mm 3 mps 745 mmHg 71%
    02:00 +19°C° 0 mm 3 mps 745 mmHg 71%
    03:00 +19°C° 0 mm 3 mps 745 mmHg 71%
    04:00 +19°C° 0 mm 3 mps 745 mmHg 71%
    05:00 +19°C° 0 mm 3 mps 745 mmHg 71%
    06:00 +20°C° 0 mm 3 mps 746 mmHg 70%
    07:00 +21°C° 0 mm 3 mps 746 mmHg 69%
    08:00 +22°C° 0 mm 3 mps 746 mmHg 68%
    09:00 +25°C° 0 mm 3 mps 746 mmHg 63%
    10:00 +27°C° 0 mm 3 mps 747 mmHg 59%
    11:00 +29°C° 0 mm 3 mps 747 mmHg 54%
    12:00 +30°C° 0 mm 3 mps 747 mmHg 52%
    13:00 +30°C° 0 mm 2 mps 747 mmHg 51%
    14:00 +31°C° 0 mm 2 mps 747 mmHg 49%
    15:00 +31°C° 0 mm 2 mps 747 mmHg 52%
    16:00 +31°C° 0 mm 2 mps 747 mmHg 55%
    17:00 +30°C° 0 mm 2 mps 746 mmHg 58%
    18:00 +28°C° 0 mm 2 mps 747 mmHg 63%
    19:00 +26°C° 0 mm 1 mps 747 mmHg 69%
    20:00 +24°C° 0 mm 1 mps 747 mmHg 74%
    21:00 +24°C° 0.1 mm 1 mps 747 mmHg 76%
    22:00 +23°C° 0.1 mm 1 mps 748 mmHg 78%
    23:00 +22°C° 0.1 mm 1 mps 748 mmHg 80%

    Day after tomorrow, 20 August, Tuesday

    Time Temperature Precipitation Wind Pressure Humidity
    00:00 +21°C° 0.1 mm 1 mps 748 mmHg 83%
    01:00 +21°C° 0.1 mm 1 mps 748 mmHg 87%
    02:00 +20°C° 0.1 mm 1 mps 748 mmHg 90%
    03:00 +20°C° 0 mm 1 mps 749 mmHg 92%
    04:00 +19°C° 0 mm 2 mps 749 mmHg 94%
    05:00 +18°C° 0 mm 2 mps 749 mmHg 96%
    06:00 +19°C° 0 mm 2 mps 749 mmHg 92%
    07:00 +20°C° 0 mm 2 mps 749 mmHg 88%
    08:00 +23°C° 0 mm 2 mps 749 mmHg 85%
    09:00 +24°C° 0 mm 2 mps 750 mmHg 79%
    10:00 +25°C° 0 mm 2 mps 750 mmHg 73%
    11:00 +27°C° 0 mm 1 mps 750 mmHg 67%
    12:00 +28°C° 0 mm 1 mps 750 mmHg 64%
    13:00 +28°C° 0 mm 2 mps 749 mmHg 60%
    14:00 +29°C° 0 mm 2 mps 749 mmHg 57%
    15:00 +29°C° 0.1 mm 2 mps 749 mmHg 59%
    16:00 +29°C° 0.1 mm 2 mps 749 mmHg 60%
    17:00 +29°C° 0.1 mm 2 mps 749 mmHg 62%
    18:00 +28°C° 0.8 mm 2 mps 749 mmHg 69%
    19:00 +26°C° 0.8 mm 2 mps 749 mmHg 76%
    20:00 +24°C° 0.8 mm 2 mps 749 mmHg 83%
    21:00 +24°C° 0.1 mm 2 mps 749 mmHg 85%
    22:00 +23°C° 0.1 mm 2 mps 749 mmHg 87%
    23:00 +23°C° 0.1 mm 2 mps 749 mmHg 89%

    21 August, Wednesday

    Time Temperature Precipitation Wind Pressure Humidity
    00:00 +21°C° 0.1 mm 2 mps 749 mmHg 89%
    01:00 +21°C° 0.1 mm 2 mps 748 mmHg 90%
    02:00 +20°C° 0.1 mm 2 mps 748 mmHg 91%
    03:00 +20°C° 0 mm 2 mps 748 mmHg 90%
    04:00 +19°C° 0 mm 2 mps 747 mmHg 89%
    05:00 +19°C° 0 mm 2 mps 747 mmHg 89%
    06:00 +21°C° 0 mm 1 mps 747 mmHg 86%
    07:00 +23°C° 0 mm 1 mps 747 mmHg 82%
    08:00 +24°C° 0 mm 1 mps 748 mmHg 79%
    09:00 +25°C° 0 mm 2 mps 748 mmHg 76%
    10:00 +26°C° 0 mm 4 mps 748 mmHg 74%
    11:00 +27°C° 0 mm 5 mps 748 mmHg 71%
    12:00 +27°C° 0 mm 5 mps 749 mmHg 72%
    13:00 +26°C° 0 mm 6 mps 749 mmHg 72%
    14:00 +26°C° 0 mm 6 mps 749 mmHg 72%
    15:00 +24°C° 0 mm 6 mps 750 mmHg 74%
    16:00 +23°C° 0 mm 6 mps 750 mmHg 76%
    17:00 +21°C° 0 mm 6 mps 750 mmHg 78%
    18:00 +20°C° 0 mm 5 mps 751 mmHg 79%
    19:00 +19°C° 0 mm 4 mps 751 mmHg 79%
    20:00 +18°C° 0 mm 4 mps 752 mmHg 80%
    21:00 +17°C° 0 mm 4 mps 752 mmHg 81%
    22:00 +17°C° 0 mm 3 mps 752 mmHg 83%
    23:00 +16°C° 0 mm 3 mps 753 mmHg 84%

    22 August, Thursday

    Time Temperature Precipitation Wind Pressure Humidity
    00:00 +16°C° 0 mm 3 mps 753 mmHg 83%
    01:00 +16°C° 0 mm 2 mps 753 mmHg 82%
    02:00 +16°C° 0 mm 2 mps 753 mmHg 81%
    03:00 +15°C° 0 mm 2 mps 752 mmHg 85%
    04:00 +15°C° 0 mm 2 mps 752 mmHg 89%
    05:00 +14°C° 0 mm 2 mps 752 mmHg 93%
    06:00 +15°C° 0 mm 2 mps 753 mmHg 90%
    07:00 +14°C° 0 mm 3 mps 753 mmHg 86%
    08:00 +16°C° 0 mm 3 mps 753 mmHg 83%
    09:00 +17°C° 0 mm 3 mps 753 mmHg 79%
    10:00 +18°C° 0 mm 3 mps 753 mmHg 75%
    11:00 +19°C° 0 mm 4 mps 753 mmHg 72%
    12:00 +20°C° 0 mm 4 mps 753 mmHg 69%
    13:00 +21°C° 0 mm 4 mps 752 mmHg 67%
    14:00 +22°C° 0 mm 4 mps 752 mmHg 64%
    15:00 +22°C° 0 mm 4 mps 752 mmHg 67%
    16:00 +22°C° 0 mm 3 mps 752 mmHg 69%
    17:00 +21°C° 0 mm 3 mps 752 mmHg 71%
    18:00 +20°C° 0 mm 3 mps 752 mmHg 73%
    19:00 +19°C° 0 mm 3 mps 752 mmHg 75%
    20:00 +18°C° 0 mm 3 mps 752 mmHg 78%
    21:00 +18°C° 0 mm 3 mps 752 mmHg 79%
    22:00 +17°C° 0 mm 3 mps 753 mmHg 80%
    23:00 +16°C° 0 mm 3 mps 753 mmHg 81%

    23 August, Friday

    Time Temperature Precipitation Wind Pressure Humidity
    00:00 +16°C° 0 mm 3 mps 753 mmHg 84%
    01:00 +16°C° 0 mm 3 mps 753 mmHg 87%
    02:00 +14°C° 0 mm 3 mps 753 mmHg 89%
    03:00 +14°C° 0 mm 3 mps 753 mmHg 90%
    04:00 +15°C° 0 mm 2 mps 753 mmHg 91%
    05:00 +15°C° 0 mm 2 mps 753 mmHg 92%
    06:00 +16°C° 0 mm 3 mps 753 mmHg 89%
    07:00 +17°C° 0 mm 3 mps 753 mmHg 86%
    08:00 +18°C° 0 mm 3 mps 753 mmHg 83%
    09:00 +20°C° 0 mm 3 mps 753 mmHg 77%
    10:00 +21°C° 0 mm 4 mps 753 mmHg 71%
    11:00 +23°C° 0 mm 4 mps 753 mmHg 65%
    12:00 +23°C° 0 mm 4 mps 753 mmHg 64%
    13:00 +25°C° 0 mm 4 mps 753 mmHg 63%
    14:00 +25°C° 0 mm 4 mps 753 mmHg 61%
    15:00 +25°C° 0 mm 4 mps 752 mmHg 62%
    16:00 +25°C° 0 mm 4 mps 752 mmHg 64%
    17:00 +24°C° 0 mm 3 mps 752 mmHg 65%
    18:00 +22°C° 0 mm 3 mps 752 mmHg 69%
    19:00 +21°C° 0 mm 3 mps 752 mmHg 73%
    20:00 +19°C° 0 mm 3 mps 752 mmHg 76%
    21:00 +18°C° 0 mm 3 mps 753 mmHg 75%
    22:00 +18°C° 0 mm 3 mps 753 mmHg 74%
    23:00 +17°C° 0 mm 3 mps 753 mmHg 73%
    Show more